Owensboro, KY

8:35 PM CST on November 21, 2017 (GMT -0600)
Owensboro-Daviess County

Weather History for KOWB - April, 2013

Change the Weather History Date:

Friday, April 5, 2013

  Actual Average Record
Temperature  
Mean Temperature 50 °F -  
Max Temperature 66 °F 62 °F 87 °F (1988)
Min Temperature 34 °F 40 °F 24 °F (1944)
Degree Days  
Heating Degree Days 15    
Moisture  
Dew Point 34 °F    
Average Humidity 56    
Maximum Humidity 92    
Minimum Humidity 28    
Precipitation  
Precipitation 0.00 in - - ()
Sea Level Pressure  
Sea Level Pressure 30.09 in    
Wind  
Wind Speed 3 mph (NW)    
Max Wind Speed 17 mph    
Max Gust Speed 21 mph    
Visibility 10 miles    
Events      
Averages and records for this station are not official NWS values.
T = Trace of Precipitation, MM = Missing Value Source: NWS Daily Summary

Daily Weather History Graph

Daily Weather History Graph

Search for Another Location

Airport or City:

Trip Planner

Search our weather history database for the weather conditions in past years. The results will help you decide how hot, cold, wet, or windy it might be!

Date:

Astronomy

Apr. 05, 2013 Rise Set
Actual Time 6:27 AM CDT 7:15 PM CDT
Civil Twilight 6:01 AM CDT 7:42 PM CDT
Nautical Twilight 5:29 AM CDT 8:13 PM CDT
Astronomical Twilight 4:57 AM CDT 8:46 PM CDT
Moon 3:29 AM CDT (4/5) 2:43 PM CDT (4/5)
Length of Visible Light 13h 41m
Length of Day
12h 47m
Waning Crescent, 23% of the Moon is Illuminated
Apr 5
Waning Crescent
Apr 10
New
Apr 18
First Quarter
Apr 25
Full
May 2
Last Quarter

Hourly Weather History & Observations

Time (CDT) Temp. Dew Point Humidity Pressure Visibility Wind Dir Wind Speed Gust Speed Precip Events Conditions
12:56 AM 38.8 °F 32.9 °F 79% 30.04 in 10.0 mi Calm Calm - N/A   Clear
1:56 AM 38.8 °F 32.9 °F 79% 30.04 in 10.0 mi Calm Calm - N/A   Clear
2:56 AM 36.0 °F 32.9 °F 89% 30.04 in 10.0 mi Calm Calm - N/A   Clear
3:56 AM 36.0 °F 32.9 °F 89% 30.06 in 10.0 mi Calm Calm - N/A   Clear
4:56 AM 34.9 °F 32.9 °F 92% 30.08 in 10.0 mi Calm Calm - N/A   Clear
5:56 AM 34.9 °F 32.9 °F 92% 30.09 in 10.0 mi Calm Calm - N/A   Clear
6:56 AM 34.9 °F 32.9 °F 92% 30.11 in 10.0 mi Calm Calm - N/A   Clear
7:56 AM 39.9 °F 36.0 °F 86% 30.12 in 7.0 mi Calm Calm - N/A   Clear
8:56 AM 47.8 °F 34.9 °F 61% 30.12 in 8.0 mi WNW 4.6 mph - N/A   Clear
9:56 AM 55.9 °F 34.0 °F 44% 30.12 in 10.0 mi NW 6.9 mph - N/A   Clear
10:56 AM 59.9 °F 32.0 °F 35% 30.12 in 10.0 mi WNW 6.9 mph - N/A   Clear
11:56 AM 63.9 °F 31.1 °F 29% 30.12 in 8.0 mi NNW 8.1 mph - N/A   Clear
12:56 PM 65.8 °F 32.9 °F 29% 30.09 in 10.0 mi WNW 17.3 mph - N/A   Clear
1:56 PM 66.9 °F 32.9 °F 28% 30.08 in 10.0 mi NW 16.1 mph 20.7 mph N/A   Clear
2:56 PM 66.9 °F 34.9 °F 31% 30.07 in 10.0 mi WNW 9.2 mph - N/A   Clear
2:58 PM 66.2 °F 35.6 °F 32% 30.07 in 10.0 mi NW 13.8 mph - N/A   Clear
3:56 PM 65.8 °F 34.9 °F 32% 30.06 in 10.0 mi NNW 11.5 mph - N/A   Clear
4:56 PM 66.9 °F 34.9 °F 31% 30.06 in 10.0 mi NNW 8.1 mph - N/A   Clear
5:56 PM 65.8 °F 36.0 °F 33% 30.06 in 10.0 mi NW 8.1 mph - N/A   Clear
6:56 PM 61.9 °F 36.0 °F 38% 30.08 in 10.0 mi NW 6.9 mph - N/A   Clear
7:56 PM 57.9 °F 36.0 °F 44% 30.09 in 10.0 mi NNW 3.5 mph - N/A   Clear
8:56 PM 54.9 °F 34.9 °F 47% 30.11 in 10.0 mi North 3.5 mph - N/A   Clear
9:56 PM 54.9 °F 34.0 °F 45% 30.12 in 10.0 mi North 3.5 mph - N/A   Clear
10:56 PM 47.8 °F 34.9 °F 61% 30.12 in 10.0 mi Calm Calm - N/A   Clear
11:56 PM 45.0 °F 36.0 °F 71% 30.11 in 10.0 mi Calm Calm - N/A   Clear